Regional Weather Roundup
Issued by NWS

Home | Current Version | Previous Version | Text Only | Print | Product List | Glossary On
Versions: 1 2 3 4 5 6 7 8 9 10 11 12 13 14 15 16 17 18 19 20 21 22 23 24 25 26 27 28 29 30 31 32 33 34 35 36 37 38 39 40 41 42 43 44 45 46 47 48 49 50
000
ASUS43 KLSX 242107
RWRMO

WEATHER SUMMARY FOR MISSOURI
NATIONAL WEATHER SERVICE SPRINGFIELD MO
300 PM CST SAT JAN 24 2015

NOTE: "FAIR" INDICATES FEW OR NO CLOUDS BELOW 12,000 FEET WITH NO
       SIGNIFICANT WEATHER AND/OR OBSTRUCTIONS TO VISIBILITY.
       CURRENT SKY AND/OR WEATHER CONDITIONS ARE NOT AVAILABLE FOR
       CHILLICOTHE AND FARMINGTON.

MOZ001>031-035>038-043-044-053-054-242200-
...NORTHERN AND WESTERN MISSOURI...

CITY           SKY/WX    TMP DP  RH WIND       PRES   REMARKS
KANSAS CTY INT PTSUNNY   57  30  35 W17G23    29.77F
KANSAS C DTWN  PTSUNNY   60  30  32 SW12      29.77F
LEE`S SUMMIT   SUNNY     56  29  35 W15G22    29.79F
ST JOSEPH      CLOUDY    56  30  37 SW15      29.75F
CHILLICOTHE      N/A     59  31  34 W8        29.74F
KIRKSVILLE     SUNNY     53  33  46 SW10      29.72F

$$
MOZ066>068-077>081-088>096-101>105-242200-
...SOUTHWEST MISSOURI...

CITY           SKY/WX    TMP DP  RH WIND       PRES   REMARKS
SPRINGFIELD    SUNNY     55  31  39 SW13      29.87F
JOPLIN         SUNNY     56  33  42 SW12      29.90F

$$
MOZ032>034-039>042-045>050-055>058-069>072-242200-
...CENTRAL MISSOURI...

CITY           SKY/WX    TMP DP  RH WIND       PRES   REMARKS
COLUMBIA       MOSUNNY   55  32  41 SW14      29.78F
JEFFERSON CITY MOSUNNY   57  31  37 W15       29.79F
ROLLA          SUNNY     54  31  41 W15       29.79F
SEDALIA        SUNNY     55  33  43 SW13      29.80F
WHITEMAN AFB   SUNNY     57  33  39 SW18G24   29.78F
WARRENSBURG    SUNNY     55  30  38 SW12G23   29.80F
OSAGE BEACH    SUNNY     55  30  38 W8        29.82F

$$
MOZ051-052-059>065-242200-
...EAST CENTRAL MISSOURI...

CITY           SKY/WX    TMP DP  RH WIND       PRES   REMARKS
ST LOUIS INTL  MOSUNNY   55  32  41 W14       29.78F
SPIRIT OF STL  SUNNY     54  32  43 W13       29.77F
ST CHARLES     SUNNY     53  35  50 W16       29.76F

$$
MOZ072>076-082>087-097>100-106>115-242200-
...SOUTH CENTRAL AND SOUTHEAST MISSOURI...

CITY           SKY/WX    TMP DP  RH WIND       PRES   REMARKS
CAPE GIRARDEAU SUNNY     52  35  52 S10       29.84F
FARMINGTON     SUNNY     57  27  30 MISG      29.84F
POPLAR BLUFF   SUNNY     55  34  45 S12       29.84F
WEST PLAINS    SUNNY     56  29  35 W12G18    29.86F

$$


USA.gov is the U.S. government's official web portal to all federal, state and local government web resources and services.